KN4RPA Weather Reports


time (UTC)temp
F
wind
direction
speed
knots
gust
knots
rain 1hr
in
rain 24hr
in
rain mn
in
humidity
%
barometer
mb
20260904104508 71 33 0.0 0.0 0.00 0.15 0.15 93 1012.1
20260904103008 71 33 0.0 0.0 0.00 0.15 0.15 93 1012.1
20260904101505 71 33 0.0 0.0 0.00 0.15 0.15 93 1012.1
20260904100004 71 33 0.0 0.0 0.00 0.15 0.15 92 1011.9
20260904094504 71 33 0.0 0.0 0.00 0.15 0.15 92 1011.9
20260904093003 71 33 0.0 0.9 0.00 0.15 0.15 92 1012.0
20260904091503 71 33 0.0 0.0 0.00 0.15 0.15 92 1011.9
20260904090006 71 33 0.0 0.0 0.00 0.15 0.15 92 1012.1
20260904084502 72 33 0.0 0.0 0.00 0.15 0.15 92 1012.0
20260904083147 72 33 0.0 0.0 0.00 0.15 0.15 91 1012.0
20260904081607 72 33 0.0 0.0 0.00 0.15 0.15 91 1012.1
20260904080059 71 33 0.0 0.0 0.00 0.15 0.15 90 1012.2
20260904074559 72 33 0.0 0.0 0.00 0.15 0.15 90 1011.9
20260904073100 72 33 0.0 0.0 0.00 0.15 0.15 90 1011.7
20260904071617 72 33 0.0 0.0 0.00 0.15 0.15 90 1011.6
20260904070113 72 33 0.0 0.0 0.00 0.15 0.15 89 1011.2
20260904064553 73 33 0.0 0.0 0.00 0.15 0.15 89 1011.2
20260904063101 73 33 0.0 0.0 0.00 0.15 0.15 88 1011.5
20260904061551 73 33 0.0 0.0 0.01 0.15 0.15 88 1011.5
20260904060050 73 33 0.0 0.9 0.15 0.15 0.15 87 1011.5
20260904054550 74 33 0.0 0.9 0.15 0.15 0.15 86 1012.3
20260904053055 74 33 0.0 0.0 0.15 0.15 0.15 84 1012.8
20260904051542 76 33 0.0 0.9 0.14 0.14 0.14 81 1013.3
20260904050039 77 28 0.9 11.3 0.00 0.00 0.00 76 1014.4
20260904044534 79 300 2.6 11.3 0.00 0.00 0.00 80 1014.5
20260904043037 81 34 1.7 5.2 0.00 0.00 0.00 86 1013.6
20260904041532 81 223 0.0 0.9 0.00 0.00 0.00 86 1012.4
20260904040033 81 223 0.0 0.9 0.00 0.00 0.00 86 1012.5
20260904034531 81 223 0.0 2.6 0.00 0.00 0.00 86 1012.1
20260904033031 81 222 0.0 0.9 0.00 0.00 0.00 86 1012.1
20260904031537 81 222 0.0 0.0 0.00 0.00 0.00 86 1011.7
20260904030029 81 222 0.0 0.0 0.00 0.00 0.00 85 1011.8
20260904024530 81 222 0.0 0.0 0.00 0.00 0.00 85 1011.9
20260904023031 81 222 0.0 0.0 0.00 0.00 0.00 85 1012.1
20260904021530 81 222 0.0 0.0 0.00 0.00 0.00 84 1012.0
20260904020028 81 222 0.0 0.0 0.00 0.00 0.00 83 1012.3
20260904014527 82 222 0.0 0.0 0.00 0.00 0.00 83 1012.2
20260904013026 82 222 0.0 0.0 0.00 0.00 0.00 82 1012.2
20260904011526 82 222 0.0 0.0 0.00 0.00 0.00 81 1012.4
20260904010026 83 222 0.0 0.0 0.00 0.00 0.00 80 1012.6
20260904004525 83 222 0.0 0.0 0.00 0.00 0.00 79 1012.8
20260904003024 84 222 0.0 0.0 0.00 0.00 0.00 79 1012.8
20260904001524 84 222 0.0 0.0 0.00 0.00 0.00 76 1012.9
20260904000023 85 222 0.0 0.0 0.00 0.00 0.00 75 1012.6
20260903234523 85 222 0.0 0.0 0.00 0.00 0.00 75 1012.2
20260903233022 86 222 0.0 0.0 0.00 0.00 0.00 73 1012.3
20260903231524 86 222 0.0 0.0 0.00 0.00 0.00 72 1012.2
20260903230034 87 222 0.0 0.0 0.00 0.00 0.00 72 1012.2
20260903224521 87 222 0.0 0.0 0.00 0.00 0.00 71 1012.0
20260903223025 88 222 0.0 0.0 0.00 0.00 0.00 70 1012.0
20260903221518 88 222 0.0 0.0 0.00 0.00 0.00 68 1011.9
20260903220025 88 222 0.0 0.0 0.00 0.00 0.00 68 1012.2
20260903214527 88 222 0.0 0.0 0.00 0.00 0.00 68 1012.2
20260903213015 87 259 0.0 0.9 0.00 0.00 0.00 68 1012.4
20260903211526 87 259 0.0 2.6 0.00 0.00 0.00 68 1012.4
20260903210017 87 259 0.0 1.7 0.00 0.00 0.00 67 1012.6
20260903204511 87 259 0.0 0.9 0.00 0.00 0.00 67 1012.6
20260903203009 87 259 0.0 0.9 0.00 0.00 0.00 66 1012.8
20260903201508 87 259 0.0 3.5 0.00 0.00 0.00 67 1013.0
20260903200008 86 259 0.0 3.5 0.00 0.00 0.00 67 1013.3
20260903194506 87 260 0.0 0.9 0.00 0.00 0.00 67 1013.4
20260903193003 86 260 0.0 1.7 0.00 0.00 0.00 68 1013.6
20260903191502 85 260 0.0 0.9 0.00 0.00 0.00 70 1013.8
20260903190002 85 260 0.0 0.9 0.00 0.00 0.00 71 1013.7
20260903184559 85 260 0.0 1.7 0.00 0.00 0.00 67 1014.0
20260903183057 85 260 0.0 0.9 0.00 0.00 0.00 73 1014.1
20260903181600 85 260 0.0 1.7 0.00 0.00 0.00 71 1014.3
20260903180054 85 260 0.0 1.7 0.00 0.00 0.00 68 1014.6
20260903174555 86 260 0.0 1.7 0.00 0.00 0.00 65 1014.5
20260903173053 86 260 0.0 5.2 0.00 0.00 0.00 65 1015.0
20260903171551 86 246 0.9 7.8 0.00 0.00 0.00 67 1015.2
20260903170058 84 234 0.0 1.7 0.00 0.00 0.00 69 1015.4
20260903164547 82 232 0.0 0.9 0.00 0.00 0.00 74 1015.3
20260903163044 82 235 0.0 1.7 0.00 0.00 0.00 76 1015.5
20260903161544 82 236 0.0 0.0 0.00 0.00 0.00 75 1015.8
20260903160041 80 240 0.0 1.7 0.00 0.00 0.00 80 1015.9
20260903154544 78 317 0.0 2.6 0.00 0.00 0.00 87 1016.2
20260903153041 77 316 0.0 0.9 0.00 0.00 0.00 91 1016.4
20260903151534 76 316 0.0 0.9 0.00 0.00 0.00 92 1016.4
20260903150032 76 317 0.0 0.9 0.00 0.00 0.00 92 1016.0
20260903144632 76 317 0.0 0.9 0.00 0.00 0.00 92 1015.8
20260903143036 76 317 0.0 0.9 0.00 0.00 0.00 92 1015.8
20260903141536 75 317 0.0 0.9 0.00 0.00 0.00 93 1015.8
20260903140021 75 317 0.0 0.9 0.00 0.00 0.00 93 1016.0
20260903134516 75 317 0.0 1.7 0.00 0.00 0.00 93 1015.7
20260903133012 75 315 0.0 2.6 0.00 0.00 0.00 93 1016.0
20260903131512 74 333 0.0 1.7 0.00 0.00 0.00 93 1016.2
20260903130009 74 334 0.0 4.3 0.00 0.00 0.00 93 1016.5
20260903124511 74 333 0.0 2.6 0.00 0.00 0.00 93 1016.4
20260903123005 75 5 0.9 5.2 0.00 0.00 0.00 93 1016.4
20260903121501 74 156 0.0 0.9 0.00 0.00 0.00 93 1015.9
20260903120058 74 156 0.0 0.0 0.00 0.00 0.00 93 1015.4
20260903114553 73 156 0.0 0.0 0.00 0.00 0.00 93 1015.5
20260903113049 73 156 0.0 0.0 0.00 0.00 0.00 93 1015.2
20260903111551 73 156 0.0 0.0 0.00 0.00 0.00 92 1015.2
20260903110040 73 156 0.0 0.0 0.00 0.00 0.00 92 1014.8